[[{"header":{"parameterUnit":"m.s-1","parameterCategory":1,"la1":30.2991,"la2":30.254,"lo1":-89.0895,"lo2":-89.0444,"dy":0.0017,"dx":0.0017,"nx":28,"ny":28,"refTime":"2025-04-09T09:00:00:Z","depth":0,"parameterNumber":2,"parameterNumberName":"U-component_of_WINDS"},"data":[0,0,0,0,0,0,0,0,0,0,0,0,0,0,0,0,0,0,0,0,0,0,0,0,0,0,0,0,0,0,0,0,0,0,0,0,0,0,0,0,0,0,0,0,0,0,0,0,0,0,0,0,0,0,0,0,0,0,3.5912,3.5913,0,3.5973,3.5974,3.5974,3.5877,3.5873,3.587,3.5867,3.5929,3.5933,3.5938,0,0,0,0,0,0,0,0,0,0,0,0,0,3.5709,3.5713,3.5912,3.5913,3.5913,3.5973,3.5974,3.5974,3.5877,3.5873,3.5869,3.5865,3.5927,3.5933,3.5938,0,0,0,0,0,0,0,0,0,0,0,0,0,3.5786,3.5714,3.5912,3.5872,3.5869,3.5973,3.5974,3.5975,3.5878,3.5873,3.5868,3.5863,3.5925,3.5932,3.5939,3.6084,0,0,3.5961,3.5964,0,0,0,0,0,0,0,0,3.5782,3.5794,3.5877,3.5875,3.5872,3.5912,3.5924,3.6011,3.5879,3.5875,3.5867,3.5861,3.5927,3.5934,3.5956,3.6087,3.609,3.5962,3.5966,3.5969,3.5971,0,0,0,0,0,0,0,3.5777,3.579,3.5936,3.5878,3.5875,3.585,3.5856,3.5941,3.5928,3.5875,3.5868,3.5876,3.5925,3.595,3.5957,3.6091,3.5962,3.5968,3.5972,3.5975,3.634,3.6345,0,0,0,0,0,0,3.5776,3.5787,3.5934,3.5938,3.5813,3.5858,3.5864,3.5904,3.5927,3.5926,3.5881,3.5872,3.594,3.5949,3.5959,3.6127,3.5969,3.5976,3.598,3.6334,3.6341,3.6347,0,0,0,0,0,0,3.5772,3.579,3.5932,3.586,3.5876,3.5867,3.5913,3.5908,3.5933,3.5932,3.5929,3.5908,3.5936,3.5949,3.6053,3.6128,3.5979,3.5986,3.6328,3.6336,3.6344,3.6468,0,0,0,0,0,0,3.5767,3.5789,3.5845,3.5862,3.5881,3.6026,3.5917,3.5913,3.5946,3.5934,3.5957,3.5956,3.5933,3.6043,3.606,3.6135,3.5991,3.6321,3.6332,3.6341,3.6457,3.6479,3.6498,0,0,0,0,0,3.576,3.5878,3.5849,3.5867,3.595,3.6031,3.6041,3.6013,3.5952,3.6007,3.6006,3.5955,3.6118,3.6054,3.6073,3.6152,3.6316,3.6329,3.6341,3.6448,3.6475,3.6498,0,0,0,0,0,0,3.5871,3.588,3.5847,3.5975,3.6003,3.6014,3.6083,3.6043,3.6088,3.6076,3.6038,3.6044,3.6156,3.6164,3.6094,3.6291,3.6207,3.6223,3.6282,3.6307,3.6328,3.6322,3.5997,0,0,0,0,0,3.5911,3.5976,3.598,3.6092,3.6107,3.6093,3.6127,3.6103,3.613,3.6141,3.6147,3.6175,3.6232,3.627,3.6323,3.6458,3.646,3.6521,3.6542,3.6558,3.6573,3.6641,3.6668,3.6387,3.6387,3.6386,0,0,3.5993,3.6005,3.6049,3.6114,3.6133,3.62,3.6104,3.6179,3.6228,3.6152,3.625,3.6256,3.6285,3.6404,3.6457,3.6415,3.6651,3.6574,3.6587,3.6592,3.6657,3.6683,3.6707,3.6395,3.6393,3.6392,0,0,3.6176,3.6193,3.6287,3.6307,3.6336,3.6325,3.6348,3.6365,3.6366,3.6464,3.6407,3.6464,3.6564,3.6586,3.661,3.6798,3.6752,3.6817,3.6924,3.6991,3.7013,3.7033,3.7097,3.7121,3.6831,3.6832,3.6832,0,3.6274,3.6373,3.634,3.6419,3.6448,3.6382,3.6476,3.6497,3.6542,3.6563,3.6515,3.6637,3.6652,3.6774,3.6819,3.6842,3.6865,3.6813,3.7013,3.7032,3.705,3.7111,3.7136,3.6839,3.6838,3.6837,3.6837,0,3.649,3.656,3.6632,3.6676,3.6714,3.68,3.6779,3.6821,3.6793,3.6786,3.6885,3.6901,3.6954,3.6981,3.6955,3.7099,3.7071,3.7019,3.6933,3.7084,3.7141,3.7165,3.685,3.6847,3.6845,3.6843,0,0,3.6746,3.6769,3.6796,3.6814,3.684,3.6892,3.6974,3.7026,3.7061,3.7094,3.716,3.7245,3.7196,3.7223,3.7199,3.7258,3.7403,3.7198,3.7198,3.7233,3.7559,3.7597,3.7625,3.7373,3.7378,3.7381,3.7556,0,3.6926,3.7068,3.7039,3.7177,3.7239,3.7176,3.7247,3.727,3.7266,3.7318,3.7313,3.7372,3.7305,3.732,3.7377,3.7374,3.7468,3.7361,3.7433,3.7436,3.7425,3.7655,3.7696,3.786,3.7578,3.7582,3.7585,0,3.7156,3.7196,3.7339,3.7352,3.7377,3.7442,3.7485,3.7536,3.7559,3.7552,3.7582,3.7545,3.7624,3.7538,3.7646,3.7574,3.7602,3.7605,3.761,3.7614,3.7518,3.7663,3.7912,3.7936,3.762,3.7617,3.7614,0,3.7325,3.7415,3.7511,3.7529,3.7547,3.7593,3.7603,3.7622,3.7654,3.7692,3.7711,3.7758,3.7784,3.782,3.7796,3.7736,3.7907,3.782,3.7902,3.7902,3.7939,3.7937,3.8194,3.7961,3.7961,3.796,3.796,0,3.7528,3.7618,3.7587,3.7646,3.7744,3.771,3.7807,3.781,3.7827,3.7884,3.7833,3.7888,3.7855,3.7906,3.7889,3.7979,3.7991,3.7986,3.798,3.799,3.799,3.8006,3.7993,3.7967,3.7965,3.7964,3.7963,0,3.7733,3.7716,3.7817,3.7825,3.7829,3.7901,3.7908,3.7962,3.7954,3.8027,3.8042,3.8029,3.8087,3.8067,3.813,3.8117,3.8232,3.8212,3.8223,3.8218,3.83,3.8291,3.8575,3.8609,3.8356,3.8358,3.836,0,3.7863,3.793,3.7945,3.798,3.7993,3.805,3.8081,3.805,3.8085,3.8115,3.8166,3.8219,3.826,3.8355,3.8351,3.8398,3.8377,3.8473,3.8384,3.839,3.8375,3.8371,3.8376,3.849,3.8493,3.8496,3.8498,0,3.8094,3.8082,3.8129,3.8173,3.8212,3.8246,3.8274,3.8305,3.8275,3.8317,3.8375,3.8407,3.8469,3.8522,3.8564,3.8573,3.853,3.8526,3.8547,3.8556,3.8559,3.8556,3.827,3.8519,3.8517,3.8515,3.8514,3.8513,3.8264,3.832,3.8338,3.8392,3.841,3.8437,3.8487,3.8485,3.8533,3.8581,3.8559,3.8626,3.8645,3.8697,3.8711,3.8762,3.8725,3.8756,3.8763,3.8771,3.878,3.8553,3.877,3.8769,3.8769,3.8768,3.8768,0,3.8491,3.8499,3.8549,3.8589,3.8631,3.8587,3.8616,3.8653,3.8712,3.8734,3.8775,3.884,3.889,3.8889,3.8935,3.8976,3.8957,3.8989,3.8985,3.8987,3.8812,3.8788,3.9003,3.9003,3.9003,3.9003,3.9003,3.9003,3.8614,3.8704,3.8694,3.8792,3.8799,3.8864,3.8883,3.8907,3.8924,3.8999,3.9041,3.9039,3.9051,3.9097,3.9141,3.9139,3.9157,3.9196,3.9187,3.9023,3.9,3.8977,3.8954,3.9201,3.9201,3.9356,3.9358,3.9359]},{"header":{"parameterUnit":"m.s-1","parameterCategory":1,"la1":30.2991,"la2":30.254,"lo1":-89.0895,"lo2":-89.0444,"dy":0.0017,"dx":0.0017,"nx":28,"ny":28,"refTime":"2025-04-09T09:00:00:Z","depth":0,"parameterNumber":3,"parameterNumberName":"V-component_of_WINDS"},"data":[0,0,0,0,0,0,0,0,0,0,0,0,0,0,0,0,0,0,0,0,0,0,0,0,0,0,0,0,0,0,0,0,0,0,0,0,0,0,0,0,0,0,0,0,0,0,0,0,0,0,0,0,0,0,0,0,0,0,0.937,0.9372,0,0.9578,0.958,0.9582,0.9663,0.9662,0.9662,0.9661,0.9874,0.988,0.9886,0,0,0,0,0,0,0,0,0,0,0,0,0,0.904,0.9045,0.9369,0.9372,0.9375,0.9577,0.958,0.9583,0.9663,0.9662,0.9662,0.9661,0.9872,0.9879,0.9886,0,0,0,0,0,0,0,0,0,0,0,0,0,0.9209,0.9047,0.9369,0.9439,0.9447,0.9577,0.958,0.9584,0.9663,0.9662,0.9662,0.9661,0.9869,0.9878,0.9887,0.9962,0,0,0.9916,0.992,0,0,0,0,0,0,0,0,0.9199,0.9221,0.9426,0.9435,0.9444,0.9594,0.9542,0.9711,0.9663,0.9581,0.9661,0.966,0.9781,0.9798,0.9839,0.9972,0.9981,0.9917,0.9922,0.9926,0.9929,0,0,0,0,0,0,0,0.9187,0.9212,0.9452,0.9429,0.944,0.946,0.9483,0.9574,0.9684,0.9588,0.9595,0.9618,0.9786,0.9829,0.9844,0.9984,0.9916,0.9925,0.993,0.9934,1.0188,1.0189,0,0,0,0,0,0,0.9164,0.9202,0.9445,0.9458,0.9317,0.9466,0.9492,0.9546,0.9683,0.9703,0.9619,0.9621,0.9814,0.9833,0.9852,0.9948,0.9926,0.9935,0.994,1.0187,1.0188,1.0189,0,0,0,0,0,0,0.9157,0.9185,0.9437,0.9332,0.9365,0.9473,0.9533,0.9551,0.9595,0.9706,0.9726,0.9643,0.9814,0.9839,0.9934,0.9956,0.9939,0.9948,1.0185,1.0187,1.0189,1.014,0,0,0,0,0,0,0.9147,0.9182,0.9212,0.9332,0.9371,0.9516,0.9535,0.9556,0.9611,0.9616,0.9734,0.9753,0.9815,0.992,0.9943,0.9969,0.9955,1.0184,1.0186,1.0188,1.014,1.014,1.014,0,0,0,0,0,0.9135,0.919,0.9213,0.9242,0.9411,0.9517,0.9539,0.961,0.9612,0.9643,0.9714,0.9749,0.995,0.9929,0.9956,0.9985,1.0183,1.0186,1.0188,1.014,1.014,1.014,0,0,0,0,0,0,0.9071,0.9207,0.9234,0.933,0.9411,0.953,0.9572,0.9608,0.969,0.9691,0.9776,0.9802,0.9889,0.9947,0.9921,1.0063,1.0069,1.0077,1.0023,1.0024,1.0023,1.0008,0.9963,0,0,0,0,0,0.9067,0.9143,0.9258,0.9332,0.9371,0.9464,0.9513,0.956,0.9648,0.9682,0.9761,0.9844,0.9925,0.9978,1.0059,1.0148,1.0175,1.0181,1.0181,1.018,1.0187,1.0237,1.0241,1.0198,1.0198,1.0198,0,0,0.9062,0.9146,0.9189,0.9321,0.9389,0.9465,0.9492,0.9572,0.9628,0.9695,0.9789,0.9849,0.9947,1.0039,1.0083,1.0089,1.0204,1.0184,1.0182,1.0189,1.024,1.0244,1.0247,1.02,1.02,1.0199,0,0,0.9091,0.9162,0.9231,0.9299,0.9402,0.9463,0.9479,0.9592,0.9635,0.9731,0.9781,0.9849,0.9989,1.0056,1.0109,1.016,1.0195,1.0184,1.0183,1.0231,1.0235,1.0238,1.0256,1.0262,1.019,1.019,1.019,0,0.9072,0.9188,0.9262,0.9338,0.9394,0.9456,0.9526,0.9588,0.9712,0.9749,0.9753,0.9928,0.9999,1.0107,1.0119,1.016,1.018,1.0172,1.0228,1.0232,1.0237,1.0255,1.0261,1.0188,1.0188,1.0188,1.0188,0,0.9158,0.9238,0.9281,0.9399,0.9459,0.9532,0.9615,0.9668,0.9709,0.9769,0.9865,0.9952,1.0051,1.008,1.0121,1.0194,1.0194,1.0212,1.022,1.0238,1.0256,1.0263,1.0185,1.0186,1.0186,1.0187,0,0,0.9155,0.9311,0.9325,0.9379,0.9496,0.9559,0.9633,0.973,0.9773,0.9855,0.9919,1.0035,1.0052,1.0111,1.016,1.0202,1.0236,1.0216,1.0219,1.0216,1.032,1.0306,1.0313,1.026,1.0261,1.0263,1.0312,0,0.9199,0.9336,0.9403,0.951,0.9583,0.9643,0.9707,0.9785,0.9843,0.9913,0.9977,1.0057,1.0074,1.011,1.0154,1.0223,1.0258,1.022,1.032,1.0322,1.0294,1.0323,1.0309,1.0351,1.032,1.0321,1.0322,0,0.927,0.9352,0.9466,0.9572,0.9606,0.9663,0.9756,0.9823,0.9912,0.9951,1.0016,1.0063,1.0143,1.0143,1.0253,1.0225,1.0269,1.0309,1.0312,1.0325,1.0324,1.0336,1.0366,1.0372,1.0334,1.0333,1.0332,0,0.9256,0.9394,0.948,0.9524,0.9651,0.9689,0.9744,0.9832,0.9885,0.9966,1.0002,1.0091,1.014,1.0207,1.0277,1.0271,1.0379,1.0386,1.0413,1.0411,1.0435,1.0432,1.0472,1.0462,1.0462,1.0462,1.0462,0,0.9299,0.9366,0.9475,0.9528,0.9604,0.968,0.9753,0.9812,0.989,0.9954,1.0011,1.007,1.0158,1.0228,1.0283,1.0365,1.0387,1.042,1.0434,1.0415,1.0411,1.0446,1.0445,1.0464,1.0463,1.0463,1.0462,0,0.9296,0.9372,0.9469,0.958,0.961,0.9661,0.9757,0.9809,0.9869,0.995,0.9973,1.0066,1.0151,1.0227,1.034,1.0376,1.046,1.0477,1.043,1.0438,1.0461,1.0457,1.0525,1.0538,1.0518,1.0518,1.0518,0,0.9319,0.9372,0.9488,0.9536,0.9589,0.9665,0.9719,0.9795,0.9849,0.9953,0.9993,1.0082,1.0158,1.029,1.0368,1.0454,1.0474,1.0491,1.0487,1.0466,1.0474,1.047,1.0475,1.0491,1.0491,1.0491,1.0491,0,0.9351,0.9385,0.9462,0.9551,0.9614,0.9688,0.9763,0.9799,0.9888,0.9946,1.0034,1.0092,1.0206,1.0294,1.0388,1.0443,1.0482,1.0491,1.0502,1.0484,1.0454,1.047,1.0429,1.0489,1.049,1.049,1.049,1.049,0.9362,0.9412,0.9501,0.9584,0.9648,0.9717,0.9772,0.9837,0.9912,1.0011,1.0051,1.0139,1.0225,1.0356,1.0411,1.0481,1.0488,1.0504,1.0508,1.0511,1.0507,1.0442,1.0498,1.0498,1.0498,1.0498,1.0498,0,0.9397,0.9457,0.9532,0.9636,0.97,0.973,0.9815,0.9867,0.9944,1.0021,1.0094,1.0193,1.0277,1.036,1.0449,1.0489,1.0508,1.0509,1.0508,1.052,1.0496,1.0477,1.0492,1.0492,1.0492,1.0492,1.0492,1.0492,0.9423,0.9508,0.9552,0.9669,0.9728,0.9816,0.9861,0.9924,0.9986,1.0095,1.0165,1.0218,1.0298,1.0392,1.047,1.0492,1.0522,1.0519,1.0545,1.0522,1.0521,1.0521,1.0504,1.0524,1.0524,1.0564,1.0564,1.0564]}]]